Weather reports worldwide

Advertisment
Culdrose, United Kingdom (3809): temperature & dewpoint: 06.12.2019 11:00:00 - 12.12.2019 11:00:00 (GMT)Culdrose, United Kingdom (3809): wind speed & gusts: 06.12.2019 11:00:00 - 12.12.2019 11:00:00 (GMT)Culdrose, United Kingdom (3809): wind direction: 06.12.2019 11:00:00 - 12.12.2019 11:00:00 (GMT)Culdrose, United Kingdom (3809): reduced air pressure: 06.12.2019 11:00:00 - 12.12.2019 11:00:00 (GMT)Culdrose, United Kingdom (3809): visibility: 06.12.2019 11:00:00 - 12.12.2019 11:00:00 (GMT)Culdrose, United Kingdom (3809): precipitation: 06.12.2019 11:00:00 - 12.12.2019 11:00:00 (GMT)
Date & Time tt [°C] td [°C] ff [km/h] ff [kn] fx [km/h] fx [kn] dd ppp [hPa] vv [km] rr [mm]
12.12.2019 11:00:00 10,3 8,9 39 21 68 37 W 986,0 10 0,2
12.12.2019 10:00:00 10,3 9,9 44 24 68 37 SSW 986,4 6 1,6
12.12.2019 09:00:00 10,1 9,8 34 18 68 37 SSW 987,6 2,0 3,0
12.12.2019 08:00:00 10,2 9,9 35 19 70 38 SSW 990,0 4,0 1,0
12.12.2019 07:00:00 10,2 10,0 44 24 65 35 SW 992,1 2,5 0,4
12.12.2019 06:00:00 10,1 9,8 50 27 68 37 SW 993,9 7 0,4
12.12.2019 05:00:00 9,6 9,4 42 23 61 33 SW 995,7 3,0 2,2
12.12.2019 04:00:00 9,0 8,4 39 21 55 30 SW 997,9 6 1,0
12.12.2019 03:00:00 8,5 7,2 41 22 55 30 SW 1000,1 12 0,4
12.12.2019 02:00:00 8,4 6,9 37 20 54 29 SW 1002,1 11 0,4
12.12.2019 01:00:00 8,2 4,7 34 18 - - WSW 1004,1 18 0,0
12.12.2019 00:00:00 7,8 4,0 22 12 46 25 WSW 1005,6 25 0,0
11.12.2019 23:00:00 7,6 3,1 26 14 - - W 1006,2 27 0,0
11.12.2019 22:00:00 7,2 2,1 26 14 - - W 1006,9 15 0,0
11.12.2019 21:00:00 6,1 2,6 21 11 - - W 1007,3 10 0,0
11.12.2019 20:00:00 5,3 2,3 21 11 - - W 1007,6 10 0,0
11.12.2019 19:00:00 5,6 2,3 21 11 50 27 W 1007,4 10 0,0
11.12.2019 18:00:00 5,6 2,4 21 11 - - W 1007,2 12 0,2
11.12.2019 17:00:00 5,5 1,9 31 17 46 25 WNW 1006,7 10 0,0
11.12.2019 16:00:00 5,7 2,8 29 16 - - WNW 1005,8 10 0,2
11.12.2019 15:00:00 5,6 3,0 37 20 63 34 WNW 1005,3 10 0,6
11.12.2019 14:00:00 6,2 3,2 31 17 63 34 W 1004,7 8 0,4
11.12.2019 13:00:00 5,6 2,6 26 14 68 37 WNW 1004,8 10 0,0
11.12.2019 12:00:00 7,2 3,2 31 17 - - W 1004,6 10 0,0
11.12.2019 11:00:00 3,4 2,4 22 12 65 35 W 1005,9 18 1,4
11.12.2019 10:00:00 6,0 3,7 28 15 93 50 W 1005,5 10 0,8
11.12.2019 09:00:00 7,3 4,5 37 20 72 39 W 1005,8 10 0,4
11.12.2019 08:00:00 8,3 4,9 39 21 67 36 SW 1006,1 10 0,0
11.12.2019 07:00:00 7,4 4,4 28 15 68 37 WSW 1007,4 10 0,4
11.12.2019 06:00:00 8,1 4,3 31 17 52 28 WSW 1008,2 19 0,0
11.12.2019 05:00:00 8,2 4,2 24 13 54 29 WSW 1009,0 27 0,2
11.12.2019 04:00:00 7,6 3,1 26 14 48 26 W 1010,0 22 0,0
11.12.2019 03:00:00 7,9 4,8 21 11 46 25 WSW 1011,0 22 0,0
11.12.2019 02:00:00 8,4 4,4 28 15 - - W 1011,4 25 0,0
11.12.2019 01:00:00 8,3 3,7 31 17 - - W 1011,6 28 0,0
11.12.2019 00:00:00 8,1 3,8 26 14 48 26 W 1011,9 22 0,0
10.12.2019 23:00:00 7,5 3,1 28 15 - - W 1011,8 28 0,0
10.12.2019 22:00:00 7,7 3,8 22 12 - - W 1011,4 10 0,0
10.12.2019 21:00:00 7,4 3,3 24 13 48 26 WNW 1011,0 15 0,0
10.12.2019 20:00:00 8,3 4,2 26 14 48 26 W 1010,2 15 0,0
10.12.2019 19:00:00 8,6 3,8 29 16 61 33 W 1009,5 10 0,2
10.12.2019 18:00:00 9,1 6,2 37 20 50 27 W 1008,8 15 0,2
10.12.2019 17:00:00 8,3 6,9 28 15 76 41 W 1007,7 10 0,4
10.12.2019 16:00:00 9,9 9,6 39 21 98 53 W 1005,7 4,5 1,8
10.12.2019 15:00:00 12,3 12,1 50 27 91 49 SSW 1004,6 3,0 0,0
10.12.2019 14:00:00 12,0 12,0 50 27 85 46 SSW 1006,4 1,4 0,0
10.12.2019 13:00:00 11,9 11,9 46 25 81 44 SSW 1008,1 1,2 0,0
10.12.2019 12:00:00 11,8 11,8 42 23 80 43 SSW 1009,6 2,0 0,0
10.12.2019 11:00:00 11,8 11,7 44 24 78 42 SSW 1011,2 1,5 0,2
10.12.2019 10:00:00 11,6 11,5 46 25 78 42 SSW 1012,5 2,5 0,0
10.12.2019 09:00:00 11,0 10,8 42 23 80 43 SSW 1013,5 2,5 0,2
10.12.2019 08:00:00 11,0 10,8 42 23 74 40 SSW 1014,3 2,4 1,6
10.12.2019 07:00:00 10,6 9,9 34 18 65 35 SSW 1015,6 3,0 0,8
10.12.2019 06:00:00 10,3 9,6 34 18 59 32 S 1017,3 5 1,2
10.12.2019 05:00:00 10,7 8,4 39 21 59 32 SSW 1019,1 6 0,0
10.12.2019 04:00:00 10,6 7,9 46 25 61 33 SSW 1020,3 13 0,0
10.12.2019 03:00:00 10,5 7,5 41 22 57 31 SSW 1021,4 10 0,0
10.12.2019 02:00:00 10,1 7,0 39 21 52 28 SSW 1022,9 19 0,0
10.12.2019 01:00:00 9,7 6,6 34 18 48 26 SSW 1024,0 18 0,0
10.12.2019 00:00:00 9,2 6,1 35 19 - - SSW 1024,8 20 0,0
09.12.2019 23:00:00 9,1 6,8 26 14 - - SSW 1025,2 17 0,0
09.12.2019 22:00:00 5,6 4,8 11 6 - - SSW 1026,2 10 0,0
09.12.2019 21:00:00 4,7 4,5 8 4 - - SSE 1026,2 10 0,0
09.12.2019 20:00:00 6,5 5,0 5 3 - - SSW 1026,5 10 0,0
09.12.2019 19:00:00 7,0 4,5 8 4 - - W 1026,4 10 0,0
09.12.2019 18:00:00 7,1 4,5 8 4 - - W 1026,2 10 0,0
09.12.2019 17:00:00 8,6 5,7 9 5 - - NW 1025,2 10 0,0
09.12.2019 16:00:00 9,0 4,7 24 13 - - NW 1025,1 10 0,0
09.12.2019 15:00:00 9,6 4,9 24 13 48 26 NW 1024,5 10 0,0
09.12.2019 14:00:00 10,4 5,3 31 17 55 30 NW 1023,4 10 0,0
09.12.2019 13:00:00 10,3 5,2 34 18 55 30 NW 1022,8 10 0,0
09.12.2019 12:00:00 10,1 5,1 31 17 61 33 NW 1022,0 10 0,0
09.12.2019 11:00:00 10,0 4,8 34 18 67 36 NW 1020,8 10 0,0
09.12.2019 10:00:00 9,9 4,7 37 20 65 35 NNW 1019,9 10 0,0
09.12.2019 09:00:00 9,6 5,4 34 18 72 39 NW 1018,2 10 0,0
09.12.2019 08:00:00 9,6 4,5 41 22 78 42 NW 1016,4 10 0,0
09.12.2019 07:00:00 9,5 4,6 42 23 91 49 NW 1014,4 10 0,0
09.12.2019 06:00:00 9,6 4,6 65 35 100 54 NW 1012,4 13 0,0
09.12.2019 05:00:00 9,9 4,1 65 35 102 55 NW 1010,4 16 0,0
09.12.2019 04:00:00 10,1 4,3 74 40 102 55 NW 1008,5 14 0,0
09.12.2019 03:00:00 10,2 4,3 67 36 104 56 NW 1007,1 14 0,0
09.12.2019 02:00:00 9,9 4,6 57 31 89 48 WNW 1005,5 17 0,0
09.12.2019 01:00:00 9,9 5,8 57 31 91 49 WNW 1003,9 13 0,6
09.12.2019 00:00:00 9,9 6,6 57 31 83 45 WNW 1002,9 12 0,0
08.12.2019 23:00:00 9,1 5,5 65 35 96 52 W 1002,2 10 0,0
08.12.2019 22:00:00 9,6 6,9 63 34 117 63 W 1001,5 10 0,2
08.12.2019 21:00:00 8,1 7,2 70 38 113 61 W 1001,5 1,8 2,4
08.12.2019 20:00:00 9,4 5,8 61 33 91 49 W 1001,4 10 0,0
08.12.2019 19:00:00 8,6 5,4 61 33 94 51 W 1002,6 16 0,0
08.12.2019 18:00:00 7,8 4,5 46 25 89 48 W 1003,6 19 0,2
08.12.2019 17:00:00 8,6 4,2 52 28 81 44 W 1004,5 10 0,2
08.12.2019 16:00:00 9,1 4,6 44 24 81 44 W 1004,6 16 0,0
08.12.2019 15:00:00 9,5 3,8 55 30 83 45 W 1004,9 17 0,0
08.12.2019 14:00:00 9,6 3,4 57 31 94 51 W 1005,5 17 0,2
08.12.2019 13:00:00 10,2 4,9 48 26 87 47 W 1006,0 17 0,0
08.12.2019 12:00:00 10,1 5,1 41 22 70 38 W 1006,4 18 0,0
08.12.2019 11:00:00 9,1 6,3 35 19 80 43 W 1007,1 17 0,0
08.12.2019 10:00:00 10,4 6,5 34 18 68 37 W 1007,4 12 0,0
08.12.2019 09:00:00 10,2 5,3 46 25 63 34 W 1007,7 14 0,0
08.12.2019 08:00:00 10,1 6,7 39 21 65 35 W 1007,5 15 0,0
08.12.2019 07:00:00 10,5 6,4 44 24 65 35 W 1007,3 14 0,0
08.12.2019 06:00:00 10,2 6,1 44 24 61 33 W 1006,9 10 0,0
08.12.2019 05:00:00 10,3 7,2 39 21 61 33 W 1006,6 12 0,0
08.12.2019 04:00:00 10,9 8,1 44 24 57 31 W 1006,2 10 0,0
08.12.2019 03:00:00 11,6 9,9 41 22 65 35 W 1006,1 13 0,0
08.12.2019 02:00:00 12,1 12,0 35 19 63 34 W 1005,8 11 0,6
08.12.2019 01:00:00 12,0 12,0 54 29 74 40 SW 1005,7 1,4 1,6
08.12.2019 00:00:00 11,6 11,5 55 30 76 41 SW 1006,4 1,8 2,2
07.12.2019 23:00:00 11,1 11,0 50 27 72 39 SSW 1006,6 2,4 3,2
07.12.2019 22:00:00 11,1 10,1 52 28 72 39 SSW 1008,2 9 0,0
07.12.2019 21:00:00 10,9 9,5 41 22 63 34 SSW 1010,1 10 0,0
07.12.2019 20:00:00 10,8 9,1 46 25 63 34 SW 1011,6 15 0,0
07.12.2019 19:00:00 10,6 8,7 41 22 55 30 SW 1012,4 10 0,0
07.12.2019 18:00:00 10,4 8,5 39 21 50 27 SW 1013,0 20 0,0
07.12.2019 17:00:00 10,4 9,1 34 18 48 26 SW 1013,6 23 0,0
07.12.2019 16:00:00 10,3 9,2 37 20 50 27 SW 1014,5 23 0,0
07.12.2019 15:00:00 10,3 8,7 28 15 48 26 SW 1014,9 4,0 0,0
07.12.2019 14:00:00 10,8 8,1 26 14 - - SW 1015,1 10 0,0
07.12.2019 13:00:00 10,8 8,9 22 12 - - SW 1015,5 25 0,0
07.12.2019 12:00:00 10,6 9,1 21 11 - - WSW 1015,9 29 0,0
07.12.2019 11:00:00 10,3 9,2 15 8 - - WSW 1016,9 30 0,0
07.12.2019 10:00:00 9,3 8,6 15 8 - - W 1017,1 13 0,0
07.12.2019 09:00:00 9,2 8,4 21 11 - - W 1016,8 10 0,0
07.12.2019 08:00:00 9,1 7,7 18 10 - - W 1015,9 28 0,0
07.12.2019 07:00:00 8,7 7,7 13 7 - - W 1016,3 10 0,0
07.12.2019 06:00:00 8,8 7,5 18 10 - - W 1016,2 17 0,0
07.12.2019 05:00:00 8,6 7,3 16 9 - - W 1015,7 17 0,0
07.12.2019 04:00:00 8,3 6,9 9 5 - - W 1015,3 20 0,0
07.12.2019 03:00:00 8,5 7,2 15 8 - - W 1015,1 20 0,0
07.12.2019 02:00:00 8,5 7,4 16 9 - - W 1014,7 19 0,0
07.12.2019 01:00:00 8,8 7,6 18 10 - - W 1014,6 21 0,0
07.12.2019 00:00:00 8,9 7,2 21 11 - - W 1014,5 19 0,0
06.12.2019 23:00:00 9,4 7,7 16 9 - - W 1014,4 18 0,0
06.12.2019 22:00:00 9,5 8,0 22 12 - - W 1013,7 15 0,0
06.12.2019 21:00:00 9,4 7,4 26 14 - - W 1013,0 18 0,0
06.12.2019 20:00:00 9,9 8,3 24 13 - - W 1012,6 16 0,0
06.12.2019 19:00:00 9,5 7,7 34 18 - - WNW 1011,7 10 0,0
06.12.2019 18:00:00 10,0 8,2 28 15 - - W 1011,4 10 0,0
06.12.2019 17:00:00 10,3 8,3 31 17 52 28 W 1010,2 18 0,0
06.12.2019 16:00:00 10,4 8,4 37 20 55 30 W 1009,2 21 0,0
06.12.2019 15:00:00 11,1 9,5 29 16 61 33 W 1009,0 8 0,0
06.12.2019 14:00:00 11,4 10,4 48 26 63 34 W 1008,7 8 0,2
06.12.2019 13:00:00 11,3 10,7 22 12 48 26 W 1008,9 6 0,2
06.12.2019 12:00:00 11,2 11,0 21 11 52 28 W 1009,4 3,0 0,0
06.12.2019 11:00:00 11,2 11,2 28 15 57 31 W 1010,0 5 0,0

tt = temperature
td = dewpoint
ff = wind speed
fx = gusts
dd = wind direction
ppp = reduced air pressure
vv = visibility
rr = precipitation

Next stations